World > North America > United States > South Carolina > Tillman

Tillman, SC Hourly Weather Conditions

Feedback E-mail the Weather

Quick WX

Tillman, SC Weather Maps

°F °C°F °C
Tillman Weather Map
UTC Time: 11/27/2022, 19:04
Your Time:

Tillman, SC Regional Weather

Expires:202211271900;;902759
ASUS42 KCHS 271825
RWRCHS

Regional Weather Roundup
National Weather Service Charleston SC
100 PM EST SUN NOV 27 2022

NOTE: "fair" indicates few or no clouds below 12,000 feet with no
significant weather and/or obstructions to visibility.

Not all stations are quality controlled. Use data with caution,
especially dewpoint observations.


SCZ027-030-031-034>040-042>050-271900-
...Southeast South Carolina...
  
CITY           SKY/WX    TMP DP  RH WIND       PRES   REMARKS
N Charleston   CLOUDY    74  68  81 SW21      29.79F                  
6HR MIN TEMP:  71; 6HR MAX TEMP:  76; 6HR PCP:  0.01;                

Waterfront Prk   N/A     70  66  87 SW13      29.67F                  
Mount Pleasant CLOUDY    72  72 100 S17G23    29.79F                  
Johns Island   CLOUDY    72  68  88 SW15G26   29.80F                  
Pinopolis        N/A     73  70  88 SW9G17      N/A                   
Moncks Corner  CLOUDY    72  32  23 SW14G20   29.76F                  
Summerville    CLOUDY    75  72  88 S9G21     29.75F                  
Beaufort MCAS  LGT RAIN  70  68  93 SW9       29.80F FOG              
6HR MIN TEMP:  70; 6HR MAX TEMP:  74; 6HR PCP:  0.01;                

Beaufort Arpt  CLOUDY    68  64  88 S10G17    29.79F                  
Hilton Head Is CLOUDY    70  68  94 SW12G23   29.83F                  
Walterboro     MOCLDY    75  70  83 S17       29.77F                  
Allendale      FAIR      77  68  73 SW10G20   29.74F                  

...Southern Midlands and Pee Dee...
  
CITY           SKY/WX    TMP DP  RH WIND       PRES   REMARKS
Georgetown     CLOUDY    75  68  78 S12G25    29.77F                  
Kingstree      CLOUDY    72  64  78 SW8G17    29.73F                  
Orangeburg     MOSUNNY   75  69  81 SW20G26   29.73F                  
6HR MIN TEMP:  60; 6HR MAX TEMP:  75; 6HR PCP:  0.19;                

Barnwell       FAIR      79  64  61 SW14G25   29.73F                  
Aiken          FAIR      77  48  35 SW32G40   29.73S                  
Manning        MOCLDY    72  68  88 SW13G18   29.74F                  
Columbia       PTSUNNY   75  65  70 SW15G23   29.70F                  
6HR MIN TEMP:  54; 6HR MAX TEMP:  76; 6HR PCP:  0.10;                

Sumter         MOSUNNY   75  68  78 SW18      29.70F                  
6HR MIN TEMP:  55; 6HR MAX TEMP:  73; 6HR PCP:  0.09;                

Florence       CLOUDY    73  69  87 SW14G26   29.71F                  
6HR MIN TEMP:  61; 6HR MAX TEMP:  73; 6HR PCP:  0.15;                

Myrtle Beach   MOSUNNY   72  68  87 S18G28    29.76F                  
N Myrtle Beach PTSUNNY   71  67  87 SW20G30   29.76F                  
6HR MIN TEMP:  66; 6HR MAX TEMP:  72; 6HR PCP:  0.02;                


$$
 

SKY/WX - Weather  TMP - Temperature  DP - Dew Point  RH - Humidity
WIND - Wind Direction/Speed PRES - Barometric Pressure VSB - Visibility
WCI - Wind Chill Index E13G22 Wind - East Wind 13 mph/Gusts of 22 mph

Trending Headlines

Trending Entertainment Headlines

Tillman Radar Loop

Use the map search tool if you want to place a location marker on the radar map...

Tillman Quick Facts

National Two Day Weather Forecast


E-mail the Tillman Weather Forecast

Voice your opinion or tell us about page issues...